Regional Weather Roundup
Issued by NWS Green Bay, WI

Home | Current Version | Previous Version | Graphics & Text | Print | Product List | Glossary Off
Versions: 1 2 3 4 5 6 7 8 9 10 11 12 13 14 15 16 17 18 19 20 21 22 23 24 25 26 27 28 29 30 31 32 33 34 35 36 37 38 39 40 41 42 43 44 45 46 47 48 49 50

000
ASUS43 KGRB 291510
RWRGRB

NORTH-CENTRAL AND NORTHEAST WISCONSIN REGIONAL WEATHER ROUNDUP
NATIONAL WEATHER SERVICE GREEN BAY WI
900 AM CST THU JAN 29 2015

WIZ005-009-010>012-018-019-291600-
NORTH CENTRAL WISCONSIN

CITY           SKY/WX    TMP DP  RH WIND       PRES   REMARKS
IRONWOOD       CLOUDY    28  25  86 NW20G26   29.94R
MANITOWISH WTR CLOUDY    27  24  89 NW14G26   29.91R
ARBOR VITAE    CLOUDY    29  25  85 NW14G22   29.91R
EAGLE RIVER    CLOUDY    27  22  79 NW15G22   29.88R
LAND O LAKES   CLOUDY    28  24  86 NW12G20   29.89R
RHINELANDER    CLOUDY    27  22  81 NW14G30   29.89R
PHILLIPS       CLOUDY    28  23  83 NW13G25   29.94R
ANTIGO         CLOUDY    28  24  87 N20G25    29.86R
TOMAHAWK       CLOUDY    28  22  78 NW16G29   29.92R
MERRILL        CLOUDY    30  24  78 N17       29.91R
$$

WIZ013-073-291600-
NORTHEAST WISCONSIN

CITY           SKY/WX    TMP DP  RH WIND       PRES   REMARKS
IRON MOUNTAIN  CLOUDY    29  23  78 N24G31    29.83R
MARINETTE      CLOUDY    30  25  80 N9        29.83R
OCONTO         CLOUDY    31  26  83 MISG      29.85R
$$

WIZ017-030-035>037-045-291600-
CENTRAL WISCONSIN

CITY           SKY/WX    TMP DP  RH WIND       PRES   REMARKS
MEDFORD        CLOUDY    28  24  84 NW17G25   29.93R
WAUSAU         CLOUDY    30  25  81 NW12G28   29.89R
MOSINEE        NOT AVBL
MARSHFIELD     CLOUDY    30  26  85 NW17      29.93R
WISC RAPIDS    CLOUDY    30  25  81 NW13      29.94R
STEVENS POINT  CLOUDY    28  25  87 NW8       29.91R FOG
WAUPACA        CLOUDY    32  27  79 NW12G22   29.90R
SHAWANO        CLOUDY    32  27  80 NW8       29.88R
CLINTONVILLE   CLOUDY    32  27  80 NW9G16    29.88R
$$

WIZ038-039-048-051-291600-
FOX VALLEY

CITY           SKY/WX    TMP DP  RH WIND       PRES   REMARKS
NWS GREEN BAY  CLOUDY    31  25  78 NW15      29.86R HAZE
APPLETON       CLOUDY    30  25  80 NW14G24   29.87R
OSHKOSH        CLOUDY    31  25  78 NW14      29.88R HAZE
FOND DU LAC    CLOUDY    31  25  78 NW18G25   29.87R
$$

WIZ022-050-052-291600-
EAST CENTRAL WISCONSIN

CITY           SKY/WX    TMP DP  RH WIND       PRES   REMARKS
STURGEON BAY   CLOUDY    28  25  86 NW16      29.84R
MANITOWOC      CLOUDY    31  27  85 NW14      29.84R
SHEBOYGAN      CLOUDY    30  25  81 NW16G22   29.84R HAZE
$$

LMZ563-521-522-541>543-291600-
LAKESHORE

STATION/POSITION TIME  TEMP    WIND        PRES    VSBY  WAVE
                       AIR SEA DIR/SP/G                  HT/PER
                 (UTC) (F)     (DEG/KT/KT) (MB)    (MI)  (FT/S)
SHEBOYGAN LKSHOR 1500   31     320/ 15/ 19 1011.3R
KEWAUNEE LKSHORE 1500   30     330/  9/ 17 1009.2S
NORTHPORT PIER   1500   30     310/ 13/ 17 1009.8R
SISTER BAY LKSHO 1500   29     330/ 13/ 15   N/A
CHAMBERS ISLAND  1500   30     300/ 12/ 17 1010.5R
MENOMINEE LKSHOR 1500   30     310/ 14     1010.8S
$$



USA.gov is the U.S. government's official web portal to all federal, state and local government web resources and services.